Погода в Тимару

Новая Зеландия     44°23′54″S   171°14′54″E
темп.,
°C
ветер,
м/с
пор.,
м/с
влажн.,
%
обл.,
%
осадки,
мм/ч
давл.,
гПа
погр.,
м
12 августа, пт
пт1200:00+3сз22845 0.1 102576
03:00+2ссз33885 0.0 102494
06:00+2ссз22852 0.0 102486
09:00+3ссз23762 0.0 1025114
12:00+7ссв01600 0.0 1024371
15:00+6юв23640 0.0 1023278
18:00+5зсз01695 0.0 102483
21:00+3сз33785 0.0 102471
13 августа, сб
сб1300:00+3зсз227523 0.0 102560
03:00+4зсз33705 0.0 102457
06:00+3зсз33670 0.0 102568
09:00+5сз45625 0.0 1026108
12:00+10сз23555 0.0 1026273
15:00+11в22540 0.0 1024487
18:00+7св12710 0.0 102520
21:00+5зсз33710 0.0 102551
14 августа, вс
вс1400:00+5зсз22580 0.0 102550
03:00+4зсз22530 0.0 102552
06:00+4зюз11520 0.0 102457
09:00+6зюз11536 0.0 102576
12:00+8ююв22530 0.0 1024273
15:00+9в11575 0.0 1022202
18:00+6ююв1168100 0.0 102331
21:00+6зюз1167100 0.0 102435
15 августа, пн
пн1500:00+5сз227190 0.0 102460
03:00+4сз227696 0.0 102459
06:00+4ссз2274100 0.0 102471
09:00+5с1168100 0.0 102485
12:00+7св2263100 0.0 1023265
15:00+8ссв4463100 0.0 1021338
18:00+7ссв3480100 0.0 1020130
21:00+5с3385100 0.0 1018106
16 августа, вт
вт1600:00+6с2386100 0.0 1016104
03:00+6с3477100 0.0 1013101
06:00+7ссз3379100 0.0 101265
09:00+8ссз4685100 0.0 1011117
12:00+13ссз3468100 0.0 1011193
15:00+15с23615 0.0 1009368
18:00+12зюз33740 0.0 101021
21:00+9сз22771 0.0 101214